Location: Passau
(48.5830°N, 13.4830°E)
Time: 06:37:30
(UTC+02:00)

Vanguard 1 - Pass Details

Date: 31 July 2021
Orbit: 652 x 3831 km, 34.3° (Epoch: 16 September)

Event Time Altitude Azimuth Distance (km) Brightness Sun altitude
Rises 17:09:17 0° 261° (W) 4,359 14.5 33.7°
Reaches altitude 10° 17:12:41 10° 245° (WSW) 3,791 14.4 33.2°
Maximum altitude 17:19:53 22° 200° (SSW) 3,763 13.6 32.0°
Drops below altitude 10° 17:30:18 10° 159° (SSE) 5,681 13.9 30.3°
Sets 17:37:16 0° 147° (SSE) 7,245 14.2 29.1°
